Weather History for KLWA - March, 2013

Change the Weather History Date:

Friday, March 1, 2013

  Actual Average (KBIV) Record (KBIV)
Temperature  
Mean Temperature 26 °F 32 °F  
Max Temperature 32 °F 39 °F 57 °F (1972)
Min Temperature 20 °F 25 °F -9 °F (1967)
Degree Days  
Heating Degree Days 39 33  
Month to date heating degree days 33  
Since 1 July heating degree days 4533  
Cooling Degree Days 0 0  
Month to date cooling degree days 0  
Year to date cooling degree days 0  
Moisture  
Dew Point 21 °F    
Average Humidity 73    
Maximum Humidity 91    
Minimum Humidity 60    
Precipitation  
Precipitation 0.00 in 0.08 in 1.04 in (2004)
Month to date precipitation 0.08  
Year to date precipitation 3.97  
Sea Level Pressure  
Sea Level Pressure 30.07 in    
Wind  
Wind Speed 7 mph (NNE)    
Max Wind Speed 13 mph    
Max Gust Speed 18 mph    
Visibility 10 miles    
Events      
T = Trace of Precipitation, MM = Missing Value Source: NWS Daily Summary

Daily Weather History Graph

Daily Weather History Graph

Search for Another Location

Airport or City:

Trip Planner

Search our weather history database for the weather conditions in past years. The results will help you decide how hot, cold, wet, or windy it might be!

Date:

Astronomy

Mar. 01, 2013 Rise Set
Actual Time 7:19 AM EST 6:35 PM EST
Civil Twilight 6:51 AM EST 7:03 PM EST
Nautical Twilight 6:19 AM EST 7:35 PM EST
Astronomical Twilight 5:46 AM EST 8:08 PM EST
Moon 11:14 PM EST (3/1) 9:00 AM EST (3/1)
Length of Visible Light 12h 11m
Length of Day
11h 15m
Waning Gibbous, 83% of the Moon is Illuminated
Mar 1
Waning Gibbous
Mar 4
Last Quarter
Mar 11
New
Mar 19
First Quarter
Mar 27
Full

Hourly Weather History & Observations

Time (EST) Temp. Windchill Dew Point Humidity Pressure Visibility Wind Dir Wind Speed Gust Speed Precip Events Conditions
12:15 AM 31.1 °F 23.7 °F 24.8 °F 77% 29.99 in 10.0 mi NNE 8.1 mph - N/A   Overcast
12:35 AM 30.9 °F 22.8 °F 24.8 °F 78% 29.99 in 10.0 mi NNE 9.2 mph - N/A   Overcast
12:55 AM 30.9 °F 24.3 °F 24.8 °F 78% 29.99 in 10.0 mi North 6.9 mph - N/A   Overcast
1:15 AM 30.7 °F 22.6 °F 24.4 °F 77% 29.99 in 10.0 mi NNE 9.2 mph - N/A   Overcast
1:35 AM 30.6 °F 22.4 °F 24.4 °F 78% 30.00 in 10.0 mi NNE 9.2 mph - N/A   Overcast
1:55 AM 30.4 °F 22.2 °F 24.3 °F 78% 30.00 in 10.0 mi NNE 9.2 mph - N/A   Overcast
2:15 AM 30.6 °F 22.4 °F 24.4 °F 78% 30.01 in 10.0 mi NE 9.2 mph - N/A   Overcast
2:35 AM 30.2 °F 24.3 °F 24.3 °F 79% 30.01 in 10.0 mi NNE 5.8 mph - N/A   Overcast
2:55 AM 30.2 °F 23.4 °F 24.4 °F 79% 30.00 in 10.0 mi NNE 6.9 mph - N/A   Overcast
3:15 AM 30.0 °F 21.7 °F 24.4 °F 80% 30.00 in 10.0 mi NNE 9.2 mph - N/A   Overcast
3:35 AM 30.0 °F 23.2 °F 24.6 °F 80% 30.00 in 10.0 mi NNE 6.9 mph - N/A   Overcast
3:54 AM 29.8 °F 22.2 °F 24.4 °F 80% 30.00 in 10.0 mi NE 8.1 mph - N/A   Overcast
4:15 AM 29.8 °F 23.9 °F 23.9 °F 79% 30.00 in 10.0 mi NE 5.8 mph - N/A   Overcast
4:55 AM 29.7 °F 24.7 °F 23.9 °F 79% 30.01 in 10.0 mi NNE 4.6 mph - N/A   Overcast
5:14 AM 29.7 °F 24.7 °F 24.1 °F 80% 30.01 in 10.0 mi NNE 4.6 mph - N/A   Overcast
5:35 AM 29.7 °F 23.7 °F 23.9 °F 79% 30.02 in 10.0 mi NNE 5.8 mph - N/A   Overcast
5:55 AM 29.3 °F 23.2 °F 23.2 °F 78% 30.02 in 10.0 mi NNE 5.8 mph - N/A   Overcast
6:14 AM 29.3 °F 23.2 °F 22.6 °F 76% 30.02 in 10.0 mi NNE 5.8 mph - N/A   Overcast
6:35 AM 29.3 °F 22.3 °F 21.7 °F 73% 30.03 in 10.0 mi NNE 6.9 mph - N/A   Overcast
6:55 AM 29.1 °F 21.3 °F 21.4 °F 73% 30.03 in 10.0 mi NNE 8.1 mph - N/A   Overcast
7:15 AM 28.9 °F 21.1 °F 21.4 °F 73% 30.04 in 10.0 mi NNE 8.1 mph - N/A   Overcast
7:35 AM 28.8 °F 20.9 °F 21.2 °F 73% 30.05 in 10.0 mi NNE 8.1 mph - N/A   Overcast
7:55 AM 28.8 °F 21.7 °F 21.6 °F 74% 30.06 in 10.0 mi NNE 6.9 mph - N/A   Overcast
8:14 AM 28.9 °F 21.1 °F 21.2 °F 73% 30.06 in 10.0 mi NNE 8.1 mph - N/A   Overcast
8:35 AM 28.9 °F 21.9 °F 21.2 °F 73% 30.07 in 10.0 mi NNE 6.9 mph - N/A   Overcast
8:55 AM 29.1 °F 22.1 °F 21.6 °F 73% 30.07 in 10.0 mi NNE 6.9 mph - N/A   Overcast
9:14 AM 29.3 °F 21.5 °F 21.2 °F 72% 30.07 in 10.0 mi NNE 8.1 mph - N/A   Overcast
9:35 AM 29.5 °F 22.5 °F 21.4 °F 72% 30.07 in 10.0 mi NE 6.9 mph - N/A   Overcast
9:55 AM 30.0 °F 24.1 °F 21.4 °F 70% 30.08 in 10.0 mi NE 5.8 mph - N/A   Overcast
10:15 AM 30.0 °F 23.2 °F 21.0 °F 69% 30.08 in 10.0 mi NNE 6.9 mph - N/A   Overcast
10:35 AM 30.0 °F 23.2 °F 21.0 °F 69% 30.09 in 10.0 mi NNE 6.9 mph - N/A   Overcast
11:15 AM 30.9 °F 23.5 °F 20.8 °F 66% 30.09 in 10.0 mi North 8.1 mph - N/A   Overcast
11:35 AM 31.1 °F 26.4 °F 20.5 °F 65% 30.10 in 10.0 mi NNE 4.6 mph - N/A   Overcast
11:55 AM 31.3 °F 24.7 °F 20.8 °F 65% 30.09 in 10.0 mi NNW 6.9 mph - N/A   Overcast
12:15 PM 31.5 °F 24.9 °F 20.7 °F 64% 30.10 in 10.0 mi North 6.9 mph - N/A   Mostly Cloudy
12:34 PM 32.0 °F 24.8 °F 19.4 °F 60% 30.10 in 10.0 mi North 8.1 mph - N/A   Scattered Clouds
1:14 PM 32.0 °F 22.5 °F 21.6 °F 65% 30.09 in 10.0 mi North 12.7 mph - N/A   Clear
1:35 PM 31.8 °F 23.3 °F 21.2 °F 65% 30.08 in 10.0 mi North 10.4 mph 16.1 mph N/A   Clear
2:14 PM 32.0 °F 24.2 °F 19.8 °F 61% 30.07 in 10.0 mi North 9.2 mph - N/A   Clear
2:35 PM 32.0 °F 24.8 °F 19.9 °F 61% 30.07 in 10.0 mi NE 8.1 mph - N/A   Clear
2:55 PM 32.0 °F 25.6 °F 20.8 °F 63% 30.07 in 10.0 mi North 6.9 mph - N/A   Clear
3:15 PM 31.6 °F 22.6 °F 20.1 °F 62% 30.07 in 10.0 mi NNE 11.5 mph - N/A   Clear
3:34 PM 31.5 °F 23.5 °F 20.1 °F 63% 30.07 in 10.0 mi North 9.2 mph 16.1 mph N/A   Clear
4:15 PM 30.9 °F 23.5 °F 19.4 °F 62% 30.07 in 10.0 mi NNE 8.1 mph - N/A   Clear
4:35 PM 30.7 °F 20.9 °F 19.4 °F 63% 30.07 in 10.0 mi North 12.7 mph - N/A   Clear
4:55 PM 30.2 °F 21.3 °F 19.6 °F 65% 30.08 in 10.0 mi NNE 10.4 mph - N/A   Clear
5:14 PM 30.0 °F 21.1 °F 19.2 °F 64% 30.08 in 10.0 mi North 10.4 mph 16.1 mph N/A   Clear
5:35 PM 29.3 °F 20.2 °F 18.1 °F 63% 30.09 in 10.0 mi North 10.4 mph 18.4 mph N/A   Clear
5:55 PM 28.8 °F 20.2 °F 17.6 °F 63% 30.10 in 10.0 mi NNE 9.2 mph - N/A   Clear
6:15 PM 28.4 °F 19.7 °F 17.6 °F 64% 30.10 in 10.0 mi NNE 9.2 mph - N/A   Clear
6:34 PM 27.9 °F 19.8 °F 17.6 °F 65% 30.10 in 10.0 mi NNE 8.1 mph - N/A   Clear
6:55 PM 27.5 °F 22.2 °F 17.6 °F 66% 30.11 in 10.0 mi NNE 4.6 mph - N/A   Clear
7:15 PM 27.1 °F 21.8 °F 17.4 °F 67% 30.12 in 10.0 mi North 4.6 mph - N/A   Clear
7:35 PM 27.1 °F 23.2 °F 17.1 °F 66% 30.12 in 10.0 mi North 3.5 mph - N/A   Clear
7:55 PM 26.6 °F - 16.9 °F 67% 30.12 in 10.0 mi Calm Calm - N/A   Clear
8:14 PM 26.2 °F - 16.9 °F 68% 30.13 in 10.0 mi Calm Calm - N/A   Clear
8:35 PM 25.5 °F - 17.2 °F 71% 30.13 in 10.0 mi Calm Calm - N/A   Clear
8:55 PM 24.3 °F - 18.3 °F 78% 30.14 in 10.0 mi Calm Calm - N/A   Clear
9:14 PM 23.9 °F - 18.0 °F 78% 30.14 in 10.0 mi Calm Calm - N/A   Clear
9:35 PM 22.8 °F - 17.8 °F 81% 30.14 in 7.0 mi Calm Calm - N/A   Clear
9:54 PM 22.3 °F - 17.8 °F 83% 30.14 in 10.0 mi Calm Calm - N/A   Clear
10:15 PM 21.9 °F - 18.5 °F 87% 30.14 in 10.0 mi Calm Calm - N/A   Clear
10:35 PM 21.2 °F - 18.9 °F 91% 30.14 in 10.0 mi Calm Calm - N/A   Clear
10:55 PM 20.8 °F - 18.0 °F 89% 30.14 in 10.0 mi Calm Calm - N/A   Clear
11:15 PM 20.7 °F - 18.1 °F 90% 30.14 in 10.0 mi Calm Calm - N/A   Mostly Cloudy
11:35 PM 21.9 °F - 19.8 °F 91% 30.13 in 10.0 mi Calm Calm - N/A   Overcast
11:55 PM 23.7 °F - 21.0 °F 89% 30.14 in 10.0 mi Calm Calm - N/A   Overcast